Flag for Germany Weather past 2 weeks in Würselen, North Rhine-Westphalia, Germany

Now
41 °F

Clear.


Feels Like: 33 °F
Forecast: 34 / 50 °F
Wind: 15 mph from Southwest

Location: Geilenkirchen Airport

Current Time: Mar 27, 2015 at 4:36:01 AM

Latest Report: Mar 27, 2015 at 3:50 AM


Visibility: 10 mi

Pressure: 29.89 "Hg

Humidity: 81%

Dew point: 36 °F

Location of WürselenLocation

Historic Weather in Würselen — Graph

°F

Würselen temperature yesterday

Maximum temperature yesterday: 46 °F (at 11:50 AM)
Minimum temperature yesterday: 39 °F (at 4:50 AM)
Average temperature yesterday: 42 °F

Past Weeks' High & Low Weather Summary

 TemperatureHumidityPressure
High63 °F (Mar 17, 3:50 PM)100% (Mar 17, 3:50 AM)30.48 "Hg (Mar 17, 3:50 AM)
Low28 °F (Mar 12, 6:50 AM)45% (Mar 17, 3:50 PM)29.65 "Hg (Mar 25, 3:50 AM)
Average43 °F81%30.12 "Hg
* Reported Mar 12 2:50 AM — Mar 27 2:50 AM, Würselen, Weather by CustomWeather, © 2015

Note: Actual official high and low records may vary slightly from our data, if they occured in-between our weather recording intervals... More about our weather records

Advertising

Würselen weather history for previous 24 hours

 ConditionsComfort  
Time TempWeatherWind HumidityBarometerVisibility
2:50 AM
Fri, Mar 27
43 °FClear.13 mph81%29.86 "Hg10 mi
1:50 AM45 °FClear.14 mph76%29.86 "Hg10 mi
12:50 AM45 °FClear.15 mph87%29.83 "Hg10 mi
11:50 PM
Thu, Mar 26
45 °FMostly cloudy.12 mph93%29.80 "HgN/A
10:50 PM45 °FMostly cloudy.12 mph93%29.80 "HgN/A
9:50 PM45 °FDrizzle. Overcast.12 mph93%29.77 "HgN/A
8:50 PM43 °FDrizzle. Mostly cloudy.10 mph93%29.74 "HgN/A
7:50 PM41 °FPartly cloudy.12 mph93%29.74 "Hg5 mi
6:50 PM41 °FDrizzle. Broken clouds.12 mph93%29.71 "Hg4 mi
5:50 PM43 °FLight rain. Partly sunny.12 mph81%29.71 "Hg4 mi
4:50 PM41 °FLight rain. Partly sunny.9 mph87%29.71 "HgN/A
3:50 PM43 °FLight rain. Partly sunny.9 mph76%29.74 "Hg5 mi
2:50 PM45 °FLight rain. Broken clouds.7 mph53%29.74 "HgN/A
1:50 PM46 °FPartly sunny.10 mph50%29.74 "HgN/A
12:50 PM46 °FPartly sunny.12 mph53%29.77 "HgN/A
11:50 AM46 °FBroken clouds.10 mph57%29.77 "HgN/A
10:50 AM45 °FPartly sunny.9 mph66%29.80 "HgN/A
9:50 AM43 °FBroken clouds.9 mph76%29.80 "HgN/A
8:50 AM41 °FBroken clouds.10 mph81%29.83 "Hg6 mi
7:50 AM39 °FBroken clouds.6 mph93%29.83 "Hg4 mi
6:50 AM39 °FPartly sunny.6 mph93%29.83 "Hg4 mi
5:50 AM39 °FPassing clouds.8 mph93%29.83 "Hg4 mi
4:50 AM39 °FPartly cloudy.9 mph93%29.80 "HgN/A
Weather by CustomWeather, © 2015

See weather overviewHow to use our weather pages